H1 CPF  2  DGF 2024 10 08 15 282 02 etalon1    NONE      
H2  8900103  525    19751 2024 10 08 00 00 00 2024 10 15 00 00 00   120 1 1  0 0 0 1
H5  0.5673
H9
10 0 60593  57600.000000  0     -24369866.403      -7193119.842       2738060.616
10 0 60593  57720.000000  0     -24327959.592      -7162397.975       3162233.561
10 0 60593  57840.000000  0     -24279001.938      -7130556.581       3585318.880
10 0 60593  57960.000000  0     -24222988.493      -7097727.735       4007171.112
10 0 60593  58080.000000  0     -24159918.493      -7064043.817       4427645.228
10 0 60593  58200.000000  0     -24089795.358      -7029637.410       4846596.686
10 0 60593  58320.000000  0     -24012626.700      -6994641.185       5263881.477
10 0 60593  58440.000000  0     -23928424.313      -6959187.796       5679356.172
10 0 60593  58560.000000  0     -23837204.176      -6923409.772       6092877.975
10 0 60593  58680.000000  0     -23738986.440      -6887439.404       6504304.766
10 0 60593  58800.000000  0     -23633795.421      -6851408.642       6913495.152
10 0 60593  58920.000000  0     -23521659.583      -6815448.983       7320308.513
10 0 60593  59040.000000  0     -23402611.525      -6779691.367       7724605.051
10 0 60593  59160.000000  0     -23276687.957      -6744266.065       8126245.837
10 0 60593  59280.000000  0     -23143929.684      -6709302.578       8525092.855
10 0 60593  59400.000000  0     -23004381.574      -6674929.527       8921009.053
10 0 60593  59520.000000  0     -22858092.532      -6641274.551       9313858.385
10 0 60593  59640.000000  0     -22705115.473      -6608464.198       9703505.858
10 0 60593  59760.000000  0     -22545507.280      -6576623.827      10089817.581
10 0 60593  59880.000000  0     -22379328.774      -6545877.501      10472660.804
10 0 60593  60000.000000  0     -22206644.673      -6516347.888      10851903.966
10 0 60593  60120.000000  0     -22027523.547      -6488156.159      11227416.741
10 0 60593  60240.000000  0     -21842037.773      -6461421.889      11599070.079
10 0 60593  60360.000000  0     -21650263.493      -6436262.959      11966736.249
10 0 60593  60480.000000  0     -21452280.555      -6412795.460      12330288.885
10 0 60593  60600.000000  0     -21248172.466      -6391133.596      12689603.028
10 0 60593  60720.000000  0     -21038026.334      -6371389.591      13044555.163
10 0 60593  60840.000000  0     -20821932.808      -6353673.597      13395023.269
10 0 60593  60960.000000  0     -20599986.021      -6338093.601      13740886.854
10 0 60593  61080.000000  0     -20372283.526      -6324755.339      14082026.997
10 0 60593  61200.000000  0     -20138926.225      -6313762.207      14418326.388
10 0 60593  61320.000000  0     -19900018.307      -6305215.172      14749669.371
10 0 60593  61440.000000  0     -19655667.178      -6299212.695      15075941.977
10 0 60593  61560.000000  0     -19405983.380      -6295850.643      15397031.968
10 0 60593  61680.000000  0     -19151080.527      -6295222.212      15712828.869
10 0 60593  61800.000000  0     -18891075.220      -6297417.849      16023224.014
10 0 60593  61920.000000  0     -18626086.971      -6302525.175      16328110.572
10 0 60593  62040.000000  0     -18356238.121      -6310628.911      16627383.594
10 0 60593  62160.000000  0     -18081653.756      -6321810.809      16920940.039
10 0 60593  62280.000000  0     -17802461.624      -6336149.580      17208678.815
10 0 60593  62400.000000  0     -17518792.045      -6353720.828      17490500.812
10 0 60593  62520.000000  0     -17230777.824      -6374596.987      17766308.933
10 0 60593  62640.000000  0     -16938554.160      -6398847.256      18036008.132
10 0 60593  62760.000000  0     -16642258.552      -6426537.542      18299505.442
10 0 60593  62880.000000  0     -16342030.708      -6457730.400      18556710.006
10 0 60593  63000.000000  0     -16038012.446      -6492484.979      18807533.112
10 0 60593  63120.000000  0     -15730347.600      -6530856.974      19051888.222
10 0 60593  63240.000000  0     -15419181.919      -6572898.571      19289690.998
10 0 60593  63360.000000  0     -15104662.970      -6618658.400      19520859.336
10 0 60593  63480.000000  0     -14786940.032      -6668181.498      19745313.390
10 0 60593  63600.000000  0     -14466164.000      -6721509.259      19962975.601
10 0 60593  63720.000000  0     -14142487.276      -6778679.400      20173770.726
10 0 60593  63840.000000  0     -13816063.670      -6839725.925      20377625.859
10 0 60593  63960.000000  0     -13487048.288      -6904679.090      20574470.458
10 0 60593  64080.000000  0     -13155597.432      -6973565.373      20764236.373
10 0 60593  64200.000000  0     -12821868.486      -7046407.450      20946857.865
10 0 60593  64320.000000  0     -12486019.817      -7123224.165      21122271.628
10 0 60593  64440.000000  0     -12148210.656      -7204030.515      21290416.818
10 0 60593  64560.000000  0     -11808600.998      -7288837.623      21451235.065
10 0 60593  64680.000000  0     -11467351.487      -7377652.731      21604670.501
10 0 60593  64800.000000  0     -11124623.306      -7470479.181      21750669.774
10 0 60593  64920.000000  0     -10780578.070      -7567316.408      21889182.072
10 0 60593  65040.000000  0     -10435377.709      -7668159.933      22020159.136
10 0 60593  65160.000000  0     -10089184.365      -7773001.358      22143555.281
10 0 60593  65280.000000  0      -9742160.274      -7881828.367      22259327.407
10 0 60593  65400.000000  0      -9394467.657      -7994624.724      22367435.023
10 0 60593  65520.000000  0      -9046268.612      -8111370.285      22467840.252
10 0 60593  65640.000000  0      -8697724.998      -8232040.999      22560507.851
10 0 60593  65760.000000  0      -8348998.328      -8356608.922      22645405.223
10 0 60593  65880.000000  0      -8000249.655      -8485042.234      22722502.426
10 0 60593  66000.000000  0      -7651639.467      -8617305.251      22791772.188
10 0 60593  66120.000000  0      -7303327.570      -8753358.448      22853189.912
10 0 60593  66240.000000  0      -6955472.988      -8893158.478      22906733.693
10 0 60593  66360.000000  0      -6608233.846      -9036658.206      22952384.319
10 0 60593  66480.000000  0      -6261767.266      -9183806.728      22990125.282
10 0 60593  66600.000000  0      -5916229.260      -9334549.410      23019942.786
10 0 60593  66720.000000  0      -5571774.624      -9488827.917      23041825.748
10 0 60593  66840.000000  0      -5228556.829      -9646580.256      23055765.808
10 0 60593  66960.000000  0      -4886727.924      -9807740.811      23061757.331
10 0 60593  67080.000000  0      -4546438.423      -9972240.389      23059797.410
10 0 60593  67200.000000  0      -4207837.211     -10140006.264      23049885.865
10 0 60593  67320.000000  0      -3871071.439     -10310962.227      23032025.252
10 0 60593  67440.000000  0      -3536286.426     -10485028.637      23006220.855
10 0 60593  67560.000000  0      -3203625.559     -10662122.473      22972480.691
10 0 60593  67680.000000  0      -2873230.199     -10842157.393      22930815.505
10 0 60593  67800.000000  0      -2545239.582     -11025043.791      22881238.770
10 0 60593  67920.000000  0      -2219790.728     -11210688.860      22823766.682
10 0 60593  68040.000000  0      -1897018.347     -11398996.654      22758418.158
10 0 60593  68160.000000  0      -1577054.751     -11589868.159      22685214.827
10 0 60593  68280.000000  0      -1260029.763     -11783201.357      22604181.027
10 0 60593  68400.000000  0       -946070.633     -11978891.300      22515343.799
10 0 60593  68520.000000  0       -635301.949     -12176830.183      22418732.874
10 0 60593  68640.000000  0       -327845.558     -12376907.419      22314380.670
10 0 60593  68760.000000  0        -23820.484     -12579009.720      22202322.277
10 0 60593  68880.000000  0        276657.152     -12783021.176      22082595.451
10 0 60593  69000.000000  0        573474.207     -12988823.333      21955240.599
10 0 60593  69120.000000  0        866520.590     -13196295.285      21820300.768
10 0 60593  69240.000000  0       1155689.337     -13405313.755      21677821.631
10 0 60593  69360.000000  0       1440876.676     -13615753.186      21527851.472
10 0 60593  69480.000000  0       1721982.099     -13827485.828      21370441.174
10 0 60593  69600.000000  0       1998908.424     -14040381.834      21205644.199
10 0 60593  69720.000000  0       2271561.860     -14254309.350      21033516.572
10 0 60593  69840.000000  0       2539852.063     -14469134.614      20854116.863
10 0 60593  69960.000000  0       2803692.199     -14684722.048      20667506.171
10 0 60593  70080.000000  0       3062998.991     -14900934.362      20473748.100
10 0 60593  70200.000000  0       3317692.780     -15117632.649      20272908.740
10 0 60593  70320.000000  0       3567697.568     -15334676.488      20065056.646
10 0 60593  70440.000000  0       3812941.066     -15551924.049      19850262.818
10 0 60593  70560.000000  0       4053354.740     -15769232.191      19628600.670
10 0 60593  70680.000000  0       4288873.850     -15986456.573      19400146.017
10 0 60593  70800.000000  0       4519437.489     -16203451.756      19164977.040
10 0 60593  70920.000000  0       4744988.619     -16420071.310      18923174.266
10 0 60593  71040.000000  0       4965474.102     -16636167.923      18674820.539
10 0 60593  71160.000000  0       5180844.731     -16851593.511      18420000.994
10 0 60593  71280.000000  0       5391055.255     -17066199.323      18158803.029
10 0 60593  71400.000000  0       5596064.405     -17279836.055      17891316.272
10 0 60593  71520.000000  0       5795834.913     -17492353.959      17617632.556
10 0 60593  71640.000000  0       5990333.530     -17703602.953      17337845.888
10 0 60593  71760.000000  0       6179531.041     -17913432.736      17052052.411
10 0 60593  71880.000000  0       6363402.277     -18121692.895      16760350.382
99